SCP
4 3 2 2 3 3 3 3 3 3 2 2 1 1 1 1 1 1 1 1 1 1 1 1 1 1 1 1 1 1 1 1 1 1 1 0 0 0 0 0 0 0 1
3 3 2 3 3 3 3 3 3 3 3 3 2 1 1 1 1 1 1 1 1 1 1 1 1 1 1 1 1 1 1 1 1 1 1 0 0 0 0 0 0 0 0
2 2 3 3 3 2 3 3 3 3 4 3 3 2 2 1 1 1 1 1 1 1 1 1 1 1 1 1 1 1 1 1 1 1 1 0 0 0 0 0 0 0 0
2 2 2 3 3 3 3 3 3 3 4 4 3 3 2 2 2 2 2 1 1 1 1 1 1 1 1 1 1 1 1 1 1 1 1 0 0 0 0 0 0 0 0
2 2 2 3 3 3 3 3 3 3 3 4 4 3 3 2 2 2 2 2 2 1 1 1 1 1 1 1 1 1 1 1 1 1 1 0 0 0 0 0 0 0 0
2 1 2 3 3 3 3 3 2 3 3 4 4 3 3 3 3 3 2 2 2 2 1 1 1 1 1 0 0 1 1 1 1 1 1 0 0 0 0 0 0 0 0
1 1 2 3 3 3 3 2 2 3 3 4 4 3 4 4 4 3 2 2 2 1 1 1 0 0 0 0 0 0 0 1 1 1 1 1 0 0 0 0 0 0 0
1 1 2 3 3 3 2 2 2 3 4 4 4 4 4 5 4 3 2 2 1 1 1 0 0 0 0 0 0 0 0 0 0 0 0 0 0 0 0 0 0 0 0
0 1 1 2 2 2 2 2 2 3 4 4 4 4 5 5 4 3 2 1 1 1 0 0 0 0 0 0 0 0 0 0 0 0 0 0 1 0 0 0 0 0 0
0 1 1 2 2 2 2 2 2 2 3 4 4 4 4 4 3 2 1 1 1 0 0 0 0 0 0 0 0 0 0 0 0 0 0 1 1 1 0 0 0 0 0
0 0 1 1 2 2 2 2 2 2 2 3 3 3 3 3 2 2 1 1 0 0 0 0 0 0 0 0 0 0 0 0 0 0 0 1 1 1 0 0 0 0 0
0 0 1 1 2 2 3 3 2 2 2 2 2 2 2 2 2 2 1 1 0 0 0 0 0 0 0 0 0 0 0 0 0 0 0 0 1 1 1 0 0 0 0
0 0 0 1 2 2 3 3 2 2 2 2 2 2 2 2 2 1 1 1 0 0 0 0 0 0 0 0 0 0 0 0 0 0 0 0 1 1 1 1 0 0 0
0 0 0 1 2 3 3 3 3 3 2 2 2 2 1 1 1 1 1 0 0 0 0 0 0 0 0 0 0 0 0 0 0 0 0 0 0 1 1 1 1 1 0
0 0 0 1 2 3 3 3 3 3 3 3 2 2 1 1 1 1 1 0 0 0 0 0 0 0 0 0 0 0 0 0 0 0 0 0 0 1 1 1 1 1 1
0 0 0 1 2 3 3 3 3 3 3 2 2 1 1 1 1 1 1 0 0 0 0 0 0 0 0 0 0 0 0 0 0 0 0 0 1 1 1 1 1 1 1
0 0 0 1 2 2 3 3 3 3 2 2 1 1 1 1 1 1 0 0 0 0 0 0 0 0 0 0 0 0 0 0 0 0 1 1 1 1 1 0 0 0 0
0 0 0 1 2 2 2 2 3 3 2 1 1 1 1 1 1 0 0 0 0 0 0 0 0 0 0 0 0 0 0 0 0 0 1 1 1 1 1 0 0 0 0
0 0 1 2 2 3 2 2 3 3 2 1 1 1 1 1 0 0 0 0 0 0 0 0 0 0 0 0 0 0 0 0 0 0 1 1 1 1 0 0 0 0 0
0 0 1 2 2 2 2 2 3 3 2 2 1 1 1 0 0 0 0 0 0 0 0 0 0 0 0 0 0 0 0 0 0 0 0 0 0 0 0 0 0 0 0
0 1 1 2 2 2 1 2 2 2 2 2 2 1 1 0 0 0 0 0 0 0 0 0 0 0 0 0 0 0 0 0 0 0 0 0 0 0 0 0 0 0 0
1 1 1 1 1 1 1 1 1 2 2 2 2 1 1 0 0 0 0 0 0 0 0 0 0 0 0 0 0 0 0 0 0 1 1 0 0 0 0 0 0 0 0
1 1 1 1 1 1 1 1 1 1 1 2 1 1 1 0 0 0 0 0 0 0 0 0 0 1 1 1 0 0 0 0 0 0 0 0 0 0 0 0 0 0 0
0 0 0 0 0 1 1 1 1 1 1 1 1 1 1 0 0 0 0 0 0 0 0 0 0 0 1 1 0 0 0 0 0 0 0 0 0 0 0 0 0 0 0
0 0 0 0 0 0 0 0 1 1 1 1 1 1 1 0 0 0 0 0 0 0 0 0 0 0 0 0 0 0 0 0 0 0 0 0 0 0 0 0 0 0 0
0 0 0 0 0 0 0 0 0 1 1 1 1 1 1 0 0 0 0 0 0 0 0 0 0 0 0 0 0 0 0 0 0 0 0 0 0 0 0 0 0 0 0
Wind_Speed
6 5 5 5 5 5 6 6 5 5 4 3 3 3 2 1 1 1 2 3 3 4 4 3 3 3 3 3 3 3 3 2 2 2 2 2 2 1 1 0 0 0 0
5 6 5 5 6 6 7 6 6 5 5 4 3 2 2 2 1 1 2 3 3 4 4 4 3 3 3 3 3 3 3 1 1 2 2 1 2 2 1 1 0 0 0
8 8 7 7 6 7 8 7 6 5 5 4 3 3 3 2 1 1 1 1 3 3 3 4 4 3 3 3 3 3 4 3 1 1 3 3 2 1 2 1 0 0 1
6 7 8 8 8 8 7 7 7 6 5 5 5 5 4 3 3 2 1 1 2 2 3 4 4 4 3 3 3 3 3 4 3 1 1 1 3 2 0 2 1 1 1
7 8 9 9 8 7 7 6 6 6 6 5 6 6 4 3 2 2 2 2 1 1 2 3 3 3 3 3 3 3 3 3 3 2 2 2 1 1 2 1 2 1 1
5 6 6 5 5 5 6 6 6 6 6 6 6 6 6 5 4 3 3 2 1 1 1 2 2 3 3 3 3 3 4 3 3 3 2 3 2 2 2 2 1 1 2
5 5 5 6 6 6 6 6 7 6 6 6 6 6 6 7 6 5 4 3 2 1 2 2 2 2 2 3 3 3 3 4 4 3 2 2 2 2 2 2 1 1 1
4 5 5 5 6 6 6 6 7 6 6 6 6 5 5 4 4 5 4 4 3 3 3 3 3 2 3 3 3 2 3 3 3 3 3 2 2 3 3 3 3 1 1
3 4 4 4 5 5 6 6 6 6 6 6 5 5 5 5 5 5 4 3 3 3 3 3 3 2 2 3 3 2 2 3 3 3 3 2 2 2 2 3 3 3 2
2 3 3 4 5 5 4 4 5 5 5 5 5 5 5 5 5 4 5 4 4 3 4 3 3 2 2 3 3 2 2 3 2 2 3 3 2 2 2 3 2 2 3
3 4 3 3 3 3 4 4 4 4 4 5 4 4 4 4 4 4 5 4 4 4 4 4 3 3 3 3 3 3 3 3 3 2 3 4 3 3 2 2 2 2 2
1 2 2 2 3 4 4 5 4 5 5 5 4 4 4 4 4 4 4 4 4 4 4 4 4 3 3 3 4 4 4 4 4 4 4 4 3 4 3 3 3 3 3
1 0 1 2 3 4 4 5 5 5 4 5 5 4 4 4 4 4 4 5 5 4 4 4 4 4 3 3 4 4 4 4 5 5 5 5 5 4 3 4 3 3 2
1 1 2 2 2 3 4 5 5 4 4 5 5 5 5 5 5 5 4 5 5 5 5 4 4 4 4 4 4 4 4 4 4 5 5 5 6 6 5 4 4 3 3
2 2 2 2 2 2 3 3 4 4 4 4 5 5 5 4 4 4 4 4 5 5 5 4 4 3 3 4 4 4 4 4 4 4 5 5 6 7 6 4 5 5 3
3 2 2 2 3 3 3 3 4 4 4 5 5 5 5 5 5 4 4 4 4 4 4 4 4 4 4 4 5 4 3 4 5 5 4 4 5 6 7 7 7 7 6
3 3 3 3 4 4 4 5 5 4 5 5 5 5 6 6 5 5 4 5 5 4 4 5 5 5 5 5 6 5 3 4 4 4 4 4 4 5 4 5 6 7 7
4 3 3 3 3 3 3 3 3 4 5 5 5 5 6 6 5 5 5 5 4 4 4 5 5 4 5 6 6 5 4 4 4 4 4 4 4 4 4 4 4 4 5
4 4 4 4 3 3 3 3 3 4 5 6 6 6 6 6 6 6 6 5 4 4 4 4 5 5 5 6 6 5 3 3 4 4 4 4 4 5 5 5 4 4 4
3 3 2 2 2 3 3 4 4 5 6 6 6 5 5 6 6 6 5 4 4 4 4 4 4 5 4 6 7 6 3 3 3 2 3 5 5 5 5 5 5 5 4
4 2 2 2 3 3 3 4 4 5 6 5 4 4 5 5 5 4 3 4 4 3 3 3 3 3 4 5 7 7 4 4 3 3 3 3 5 5 6 6 5 6 4
3 1 1 2 2 2 3 4 4 4 3 4 4 4 4 4 4 4 3 3 4 4 3 3 2 2 3 4 6 8 7 5 4 4 3 3 5 6 7 6 6 6 4
2 2 1 2 2 2 3 4 3 2 2 3 4 3 3 3 4 5 4 3 3 4 3 3 3 3 2 3 5 7 8 7 4 3 4 4 4 5 5 6 6 4 3
3 2 1 1 2 1 2 3 2 2 3 3 3 3 3 3 3 3 3 4 4 4 3 3 3 3 2 2 3 3 4 5 4 3 3 3 3 3 3 3 3 3 4
2 2 1 1 2 2 2 1 2 3 3 3 2 2 3 3 3 3 3 4 4 5 5 4 4 3 4 5 6 4 4 4 4 3 1 1 1 2 2 2 3 3 3
2 2 2 2 2 2 1 1 2 4 4 3 2 2 2 2 2 2 1 1 3 4 6 5 4 4 5 5 6 7 6 6 6 4 2 3 3 4 4 4 3 3 4
Wind_Direction
209 190 186 171 160 166 170 174 172 168 155 149 155 153 160 155 154 174 164 160 157 155 151 151 147 142 138 139 135 119 106 93 104 91 53 21 23 31 24 263 141 128 140
197 188 183 176 175 176 176 176 179 175 173 170 165 157 144 149 164 166 145 157 157 159 161 155 156 151 137 134 135 128 127 121 116 124 107 32 353 359 20 13 184 223 262
203 194 188 190 185 185 182 182 181 175 173 158 132 114 93 79 88 118 141 161 157 163 157 155 153 156 150 154 153 145 147 154 142 137 145 152 203 309 341 341 325 273 239
207 199 193 193 196 195 181 176 173 169 166 157 157 159 158 165 184 173 163 139 141 157 157 155 160 160 155 155 163 155 152 155 165 150 133 153 152 151 319 331 331 308 256
206 203 202 200 198 188 178 174 169 169 168 166 169 167 158 163 150 135 137 132 128 151 154 158 162 160 157 161 163 159 158 162 167 167 158 137 119 137 156 244 314 326 292
213 211 207 192 187 176 172 169 169 177 175 174 175 175 169 159 148 152 162 159 146 143 155 152 156 162 163 170 176 172 167 171 171 171 169 167 165 171 168 192 234 282 296
203 207 200 187 183 179 179 174 176 184 183 178 181 185 178 169 169 173 174 169 169 188 198 173 166 171 175 173 168 167 170 175 177 180 182 184 185 161 156 154 172 239 298
203 204 199 189 185 183 182 180 182 185 183 183 188 183 176 172 175 176 173 179 189 197 186 177 173 174 170 168 164 167 179 175 180 185 178 179 189 173 167 162 156 156 298
212 209 193 186 185 184 188 188 185 186 184 184 181 182 181 180 181 175 173 183 190 188 172 169 170 172 169 168 164 173 184 174 183 189 187 186 189 180 180 173 172 165 192
220 213 195 194 195 193 185 177 182 187 184 181 186 192 188 184 179 172 182 186 187 176 161 166 171 173 176 172 166 168 175 174 190 187 186 195 195 184 182 182 182 178 179
231 218 205 195 186 176 177 183 185 182 179 184 191 189 187 177 168 180 188 184 183 175 171 176 178 183 187 181 172 184 179 184 197 197 194 207 196 186 187 177 173 182 181
249 228 204 176 171 182 189 191 190 188 189 185 183 185 180 173 173 190 193 184 183 184 180 177 182 190 192 188 187 199 198 198 205 210 207 215 198 194 189 182 187 193 198
286 325 167 199 199 196 198 194 191 195 187 176 178 182 179 175 187 195 192 186 184 184 180 179 189 197 197 197 202 203 209 213 215 211 210 212 196 200 195 190 193 197 197
232 222 223 232 233 213 202 193 189 187 178 174 177 185 194 189 193 192 189 190 187 185 186 191 196 199 200 202 208 207 213 218 220 216 215 214 203 204 198 195 195 188 186
244 219 224 232 236 217 193 191 191 185 176 175 184 194 195 187 186 188 191 191 189 191 188 189 197 201 204 209 209 211 216 214 219 220 221 222 217 214 206 201 194 187 190
262 245 236 230 228 225 212 196 193 189 180 188 195 190 183 185 191 194 191 187 191 193 186 193 200 210 221 220 215 211 217 216 216 221 225 226 220 220 216 215 204 192 195
268 241 238 229 225 225 215 207 201 186 188 195 197 192 189 191 197 199 189 193 196 190 196 203 205 219 229 217 217 216 208 212 216 220 221 223 217 207 209 214 212 214 219
273 256 251 248 235 226 222 211 193 186 191 197 198 197 193 195 193 192 199 201 194 193 202 208 210 217 226 210 211 212 209 213 217 216 214 214 217 209 201 202 212 224 227
255 249 244 246 229 215 206 196 205 200 197 201 202 199 192 190 190 198 206 201 190 199 207 207 207 212 227 210 203 197 201 212 222 220 216 213 217 218 200 194 212 234 248
264 247 244 240 227 229 192 188 206 205 211 211 207 198 190 188 193 201 202 197 191 199 201 210 211 211 222 211 202 193 196 210 223 224 220 215 216 215 201 199 205 229 246
266 240 225 232 230 215 189 199 206 217 218 207 197 188 187 190 190 189 190 188 189 187 195 207 222 221 224 213 203 196 197 206 213 219 223 224 214 214 212 210 211 225 234
295 271 242 259 252 200 186 206 216 223 206 184 183 185 183 187 180 172 184 186 179 187 199 202 226 233 222 210 208 205 209 204 203 218 222 224 217 217 218 218 225 230 229
314 298 250 274 276 212 191 204 231 194 158 164 175 177 173 176 171 172 180 181 179 188 199 201 221 240 229 216 214 209 209 206 208 223 222 223 224 223 226 232 231 223 213
328 325 320 304 295 268 221 206 191 158 146 160 170 161 163 171 171 172 176 178 185 194 202 208 221 235 235 223 207 198 206 211 216 228 230 232 232 228 231 235 227 216 213
315 319 313 288 281 261 245 226 172 142 139 153 161 158 164 173 173 178 188 193 202 196 197 212 212 217 237 230 200 187 198 198 196 175 181 196 206 220 228 234 232 222 211
318 325 319 308 297 269 240 210 173 150 142 144 152 158 163 175 176 175 189 243 226 224 216 215 211 229 237 231 200 200 205 195 166 154 196 215 223 229 233 237 242 235 230